Pulkovo current weather conditions

sailwx.info

Wind from 100 at 3 knots

Air temperature -7.0° C
Visibility: greater than 3.2 NM
Dewpoint -8.0° C
Present weather: Light snow.

Last reported at 2014-Oct-23 03:30 UTC.
Time now 2014-Oct-23 05:56 UTC

Location: N 59°48' E 030°16'.
View on Google Maps.

See reports from other nearby stations

  
Tides and Currents Weather Stations Pressure Air Temp Water Temp Dewpoint Dewpoint Depression Visibility Wind Speed Wind Dir Waves Ship Positions
date/time (UTC)wind fromknots sea level pressurealtimeterstation pressurevisibilityair tempwater tempwave heightnotes
2014-Oct-23 03:30 100 3 3.2-7.0 Light snow.
2014-Oct-23 03:00 3.2-7.0 Light snow.
2014-Oct-23 02:30 3.8-7.0 Light snow.
2014-Oct-23 02:00 150 3 5.4-6.0 Light snow.
2014-Oct-23 01:30 140 3 5.4-6.0 Light snow.
2014-Oct-23 01:00 150 3 5.4-6.0 Light snow.
2014-Oct-23 00:30 150 3 5.4-6.0 Light snow.
2014-Oct-23 00:00 160 5 5.4-6.0
2014-Oct-22 23:30 110 5 5.4-5.0
2014-Oct-22 23:00 140 3 5.4-5.0
2014-Oct-22 22:30 130 3 5.4-5.0
2014-Oct-22 22:00 120 3 5.4-5.0
2014-Oct-22 21:30 130 3 5.4-5.0
2014-Oct-22 21:00 130 5 5.4-5.0
2014-Oct-22 20:30 110 5 5.4-5.0
2014-Oct-22 20:00 100 3 5.4-5.0 Light snow.
2014-Oct-22 19:30 120 3 5.4-6.0 Light snow.
2014-Oct-22 19:00 120 5 5.4-6.0 Light snow.
2014-Oct-22 18:30 110 5 3.2-6.0 Light snow.
2014-Oct-22 18:00 110 5 2.4-5.0 Light snow.
2014-Oct-22 17:30 070 9 2.4-5.0 Light snow.
2014-Oct-22 17:00 080 9 3.8-5.0 Light snow.
2014-Oct-22 16:30 050 5 5.4-5.0 Light snow.
2014-Oct-22 16:00 040 5 5.4-4.0 Light snow.
2014-Oct-22 15:30 040 9 3.8-4.0 Light snow.
2014-Oct-22 15:00 030 7 5.4-4.0 Light snow.
2014-Oct-22 14:30 020 11 5.4-4.0 Light snow.
2014-Oct-22 14:00 040 9 5.4-4.0 Light snow.
2014-Oct-22 13:30 030 11 5.4-3.0 Light snow.
2014-Oct-22 13:00 010 7 gusting 17 5.4-3.0 Light snow.
2014-Oct-22 12:30 050 9 5.4-3.0
2014-Oct-22 12:00 030 9 5.4-3.0
2014-Oct-22 11:30 020 9 5.4-3.0
2014-Oct-22 11:00 050 9 5.4-3.0
2014-Oct-22 10:30 030 9 5.4-2.0
2014-Oct-22 10:00 020 11 5.4-2.0
2014-Oct-22 09:30 030 9 5.4-2.0
2014-Oct-22 09:00 040 5 5.4-3.0 Light snow.
2014-Oct-22 08:30 110 3 5.4-3.0 Light snow.
2014-Oct-22 08:00 110 5 5.4-4.0 Light snow.
2014-Oct-22 07:30 120 5 5.4-4.0 Light snow.
2014-Oct-22 07:00 110 5 5.4-4.0 Light snow.
2014-Oct-22 06:30 110 5 5.4-4.0
2014-Oct-22 06:00 120 5 5.4-4.0
2014-Oct-22 05:30 120 7 5.4-5.0
2014-Oct-22 05:00 110 9 5.4-5.0
2014-Oct-22 04:30 110 9 5.4-4.0
2014-Oct-22 04:00 110 7 5.4-3.0
2014-Oct-22 03:30 100 7 5.4-4.0
2014-Oct-22 03:00 100 7 5.4-3.0
2014-Oct-22 02:30 110 5 5.4-3.0
2014-Oct-22 02:00 100 5 5.4-4.0
2014-Oct-22 01:30 110 5 5.4-4.0
2014-Oct-22 01:00 100 7 5.4-4.0
2014-Oct-22 00:30 090 9 5.4-3.0
2014-Oct-22 00:00 080 11 5.4-3.0
2014-Oct-21 23:30 080 9 5.4-3.0
2014-Oct-21 23:00 060 11 5.4-2.0
2014-Oct-21 22:30 070 13 5.4-2.0
2014-Oct-21 22:00 080 13 5.4-2.0
2014-Oct-21 21:30 080 11 5.4-1.0
2014-Oct-21 21:00 070 9 5.4-1.0
2014-Oct-21 20:30 080 7 5.4-1.0
2014-Oct-21 20:00 080 7 5.4-1.0
2014-Oct-21 19:30 060 9 5.4-1.0
2014-Oct-21 19:00 060 11 5.4-0.0
2014-Oct-21 18:30 090 5 5.4-1.0 Light small hail/snow pellets showers.
2014-Oct-21 18:00 100 5 5.4-1.0 Light snow rain.
2014-Oct-21 17:30 110 5 5.4-1.0 Light snow rain.
2014-Oct-21 17:00 080 5 5.4-0.0
2014-Oct-21 16:30 100 3 5.4-0.0
2014-Oct-21 16:00 080 5 5.4-0.0
2014-Oct-21 15:30 100 7 5.4-0.0
2014-Oct-21 15:00 060 9 5.4-0.0
2014-Oct-21 14:30 060 9 5.4-0.0
2014-Oct-21 14:00 060 5 5.4-0.0
2014-Oct-21 13:30 070 9 5.4-0.0
2014-Oct-21 13:00 040 7 5.4 1.0
2014-Oct-21 12:30 020 7 5.4 1.0
2014-Oct-21 12:00 020 11 5.4-0.0
2014-Oct-21 11:30 020 7 5.4 1.0
2014-Oct-21 11:00 360 9 5.4 1.0
2014-Oct-21 10:30 010 9 5.4 1.0
2014-Oct-21 10:00 010 9 5.4 1.0
2014-Oct-21 09:30 020 9 5.4 1.0 Light snow showers.
2014-Oct-21 09:00 010 9 5.4 1.0 Light snow showers.
2014-Oct-21 08:30 010 7 gusting 17 5.4 1.0 Light snow showers.
2014-Oct-21 08:00 010 9 5.4 1.0
2014-Oct-21 07:30 020 7 0.6 1.0 Snow.
2014-Oct-21 07:00 030 9 5.4 1.0 Light snow.
2014-Oct-21 06:30 020 9 5.4 1.0
2014-Oct-21 06:00 030 9 5.4 1.0
2014-Oct-21 05:30 040 9 5.4 2.0
2014-Oct-21 05:00 030 9 gusting 19 5.4 2.0